Weather History for Caldwell, NJ

Change the Weather History Date:

Wednesday, May 13, 2009

  Actual Average Record
Temperature  
Mean Temperature 54 °F -  
Max Temperature 66 °F 72 °F 88 °F (1991)
Min Temperature 42 °F 47 °F 33 °F (1967)
Degree Days  
Heating Degree Days 11    
Growing Degree Days 4 (Base 50)    
Moisture  
Dew Point 41 °F    
Average Humidity 60    
Maximum Humidity 92    
Minimum Humidity 33    
Precipitation  
Precipitation 0.00 in - - ()
Sea Level Pressure  
Sea Level Pressure 30.39 in    
Wind  
Wind Speed 3 mph (SSE)    
Max Wind Speed 15 mph    
Max Gust Speed 21 mph    
Visibility 10 miles    
Events      
Averages and records for this station are not official NWS values.
T = Trace of Precipitation, MM = Missing Value Source: NWS Daily Summary

Daily Weather History Graph

Daily Weather History Graph

Search for Another Location

Airport:

Trip Planner

Search our weather history database for the weather conditions in past years. The results will help you decide how hot, cold, wet, or windy it might be!

Date:

Astronomy

May. 13, 2009 Rise Set
Actual Time 5:41 AM EDT 8:06 PM EDT
Civil Twilight 5:10 AM EDT 8:37 PM EDT
Nautical Twilight 4:32 AM EDT 9:15 PM EDT
Astronomical Twilight 3:49 AM EDT 9:58 PM EDT
Moon No Moon Rise 8:48 AM EDT (5/13)
Length of Visible Light 15h 26m
Length of Day
14h 24m
Waning Gibbous, 82% of the Moon is Illuminated
May 13
Waning Gibbous
May 17
Last Quarter
May 24
New
May 30
First Quarter
Jun 7
Full

Hourly Weather History & Observations

Time (EDT) Temp. Dew Point Humidity Pressure Visibility Wind Dir Wind Speed Gust Speed Precip Events Conditions
12:53 AM 46.9 °F 42.1 °F 83% 30.32 in 10.0 mi Calm Calm - N/A   Clear
1:53 AM 46.0 °F 42.1 °F 86% 30.34 in 10.0 mi Calm Calm - N/A   Clear
2:53 AM 45.0 °F 41.0 °F 86% 30.36 in 10.0 mi Calm Calm - N/A   Clear
3:53 AM 44.1 °F 41.0 °F 89% 30.37 in 10.0 mi Calm Calm - N/A   Clear
4:53 AM 43.0 °F 39.9 °F 89% 30.37 in 8.0 mi Calm Calm - N/A   Clear
5:53 AM 42.1 °F 39.9 °F 92% 30.38 in 7.0 mi Calm Calm - N/A   Clear
6:53 AM 46.0 °F 43.0 °F 89% 30.40 in 9.0 mi Calm Calm - N/A   Clear
7:53 AM 51.1 °F 45.0 °F 80% 30.41 in 10.0 mi Calm Calm - N/A   Clear
8:53 AM 57.9 °F 46.0 °F 65% 30.42 in 10.0 mi Calm Calm - N/A   Clear
9:53 AM 64.0 °F 45.0 °F 50% 30.43 in 10.0 mi Calm Calm - N/A   Clear
10:53 AM 64.9 °F 42.1 °F 43% 30.43 in 10.0 mi ESE 4.6 mph - N/A   Clear
11:53 AM 66.0 °F 39.9 °F 38% 30.43 in 10.0 mi SE 8.1 mph - N/A   Clear
12:53 PM 66.0 °F 37.0 °F 34% 30.42 in 10.0 mi SSE 11.5 mph - N/A   Clear
1:53 PM 66.0 °F 37.9 °F 36% 30.42 in 10.0 mi SE 11.5 mph 19.6 mph N/A   Clear
2:53 PM 66.0 °F 36.0 °F 33% 30.41 in 10.0 mi South 15.0 mph - N/A   Clear
3:53 PM 66.0 °F 37.9 °F 36% 30.40 in 10.0 mi SSE 12.7 mph 18.4 mph N/A   Clear
4:53 PM 64.9 °F 37.0 °F 36% 30.39 in 10.0 mi SSE 15.0 mph 20.7 mph N/A   Clear
5:53 PM 63.0 °F 41.0 °F 45% 30.40 in 10.0 mi SSE 10.4 mph - N/A   Clear
6:53 PM 60.1 °F 39.0 °F 46% 30.39 in 10.0 mi SSE 11.5 mph - N/A   Clear
7:53 PM 57.0 °F 39.0 °F 51% 30.39 in 10.0 mi SE 8.1 mph - N/A   Clear
8:53 PM 57.0 °F 39.9 °F 53% 30.39 in 10.0 mi SSE 9.2 mph - N/A   Clear
9:53 PM 55.9 °F 44.1 °F 64% 30.40 in 10.0 mi Calm Calm - N/A   Clear
10:53 PM 55.9 °F 44.1 °F 64% 30.40 in 10.0 mi Calm Calm - N/A   Clear
11:53 PM 55.9 °F 43.0 °F 62% 30.40 in 10.0 mi Calm Calm - N/A   Clear